Location: Bush Observatory
(40.2653°N, 94.3194°W)
Time: 07:57:25
(UTC-06:00)

Tiangong 2 - Visible Passes

Search period start: 16 November 2018 00:00
Search period end: 26 November 2018 00:00
Orbit: 382 x 393 km, 42.8° (Epoch: 15 November)

Date Brightness Start Highest point End Pass type
(mag) Time Alt. Az. Time Alt. Az. Time Alt. Az.
23 Nov 3.5 06:31:06 10° SSW 06:33:48 25° SSE 06:36:29 10° E visible
24 Nov 4.0 05:33:30 10° S 05:35:22 15° SE 05:37:14 10° ESE visible
25 Nov 2.2 06:10:10 10° SW 06:13:13 43° SSE 06:16:18 10° E visible
